Regional Weather Roundup
Issued by NWS Little Rock, AR

Home | Current Version | Previous Version | Graphics & Text | Print | Product List | Glossary On
Versions: 1 2 3 4 5 6 7 8 9 10 11 12 13 14 15 16 17 18 19 20 21 22 23 24 25 26 27 28 29 30 31 32 33 34 35 36 37 38 39 40 41 42 43 44 45 46 47 48 49 50
000
ASUS44 KLZK 020105
RWRLZK

WEATHER ROUNDUP FOR ARKANSAS
NATIONAL WEATHER SERVICE LITTLE ROCK AR
700 PM CST SUN MAR 01 2015

NOTE: "FAIR" INDICATES FEW OR NO CLOUDS BELOW 12,000 FEET WITH NO
SIGNIFICANT WEATHER AND/OR OBSTRUCTIONS TO VISIBILITY.

ARZ001-003-010-029-020200-
NORTHWEST ARKANSAS

CITY           SKY/WX    TMP DP  RH WIND       PRES   REMARKS
FAYETTEVILLE   CLOUDY    32  31  96 N5        30.36R WCI  27
FORT SMITH     CLOUDY    37  33  85 NW6       30.38R
HARRISON       CLOUDY    32  31  96 W3        30.36R FOG
BENTONVILLE    CLOUDY    30  27  86 NE6       30.37R WCI  24
ROGERS         CLOUDY    30  29  96 N6        30.37R WCI  24
SILOAM SPGS    CLOUDY    30  25  80 CALM      30.38R
HIGHFILL       CLOUDY    32  29  88 NE7       30.35S FOG     WCI  26
SPRINGDALE     CLOUDY    32  30  93 N8        30.37S FOG     WCI  25
$$

ARZ004-005-016-020200-
NORTH CENTRAL ARKANSAS

CITY           SKY/WX    TMP DP  RH WIND       PRES   REMARKS
BATESVILLE     CLOUDY    37  36  93 W5        30.38R
FLIPPIN        CLOUDY    34  28  80 NW3       30.37S
MTN HOME       CLOUDY    33  32  96 N3        30.36R FOG
$$

ARZ040-041-020200-
WEST CENTRAL ARKANSAS

CITY           SKY/WX    TMP DP  RH WIND       PRES   REMARKS
MENA           CLOUDY    39  36  87 NE8       30.31F
MOUNT IDA      CLOUDY    39  37  92 CALM      30.31R FOG
$$

ARZ009-017-025-026-028-020200-
NORTHEAST ARKANSAS

CITY           SKY/WX    TMP DP  RH WIND       PRES   REMARKS
CORNING        CLOUDY    36  34  93 NW5       30.38S
JONESBORO      CLOUDY    36  34  92 N5        30.37R
NEWPORT        LGT RAIN  37  37 100 NW5       30.39R FOG
WALNUT RIDGE   CLOUDY    36  30  80 CALM      30.37S
BLYTHEVILLE    LGT RAIN  34  34 100 NW5       30.38R FOG     WCI  30
$$

ARZ022-023-033-042-044-020200-
CENTRAL ARKANSAS

CITY           SKY/WX    TMP DP  RH WIND       PRES   REMARKS
LITTLE ROCK    LGT RAIN  41  38  89 N6        30.36R FOG
N LITTLE ROCK  CLOUDY    39  39 100 N5        30.36R
JACKSONVILLE   DRIZZLE   41  41 100 VRB2      30.35R FOG
SEARCY         LGT RAIN  39  38  96 N8        30.38S FOG
HOT SPRINGS    CLOUDY    40  38  93 N3        30.34R
RUSSELLVILLE   CLOUDY    39  37  92 CALM      30.36R FOG
CLINTON        CLOUDY    37  34  87 N3        30.40R
$$

ARZ036-020200-
EAST ARKANSAS

CITY           SKY/WX    TMP DP  RH WIND       PRES   REMARKS
WEST MEMPHIS   CLOUDY    37  37 100 N9        30.35R
$$

ARZ050-053-066-070-073-020200-
SOUTHWEST ARKANSAS

CITY           SKY/WX    TMP DP  RH WIND       PRES   REMARKS
ARKADELPHIA    MOCLDY    42  42 100 NE6       30.35S
CAMDEN         CLOUDY    41  39  93 MISG      30.33F FOG
TEXARKANA      CLOUDY    42  41  96 NE5       30.32S FOG
EL DORADO      CLOUDY    41  40  96 N6        30.32S FOG
DE QUEEN       CLOUDY    43  41  93 CALM      30.32R
$$

ARZ056-057-069-020200-
SOUTHEAST ARKANSAS

CITY           SKY/WX    TMP DP  RH WIND       PRES   REMARKS
PINE BLUFF     LGT RAIN  39  39 100 N7        30.35R FOG
STUTTGART      CLOUDY    39  36  87 N8        30.37R
MONTICELLO     LGT RAIN  41  39  93 N3        30.32R FOG

$$





USA.gov is the U.S. government's official web portal to all federal, state and local government web resources and services.